Terug naar catalogus

CZ-6A DEB

ActiefPO
NORAD 60856·DEBRIS·🇨🇳 China

Gelanceerd Aug 6, 2024 vanaf Taiyuan Satellite Launch Center

Loading…

Volgende Passages (komende 24 uur)

TLE

VersSource: Space-Track

Epoch: Sep 14, 2026, 18:39 UTC

1 60856U 24140JK  26257.77772396  .00000464  00000-0  33750-3 0  9991
2 60856  89.1417 281.9265 0207662  35.7509 325.7361 13.84955697105372

Volg CZ-6A DEB in realtime met AllMySat

Download on the App Store